OBJECT AA, 42849

Orbit data source: Space-Track

You're viewing an Uncataloged Satellite

Recently launched and/or uncataloged satellites may have evolving metadata. Metadata may include but not limited to: Owner, Maufacturer, Bus, Motor, and Mission.

OBJECT AA, 42849 is a satellite in SSO that was launched on Fri, 14 Jul 2017 UTC via a SOYUZ-2-1A launch vehicle from the Tyuratam Missile And Space Complex (TTMTR). Unknown objects in Earth's orbit typically refer to objects detected orbiting the Earth but have not yet been identified or cataloged. These objects could be anything from previously untracked satellites, spent rocket stages, debris from satellite collisions, or even natural meteoroids temporarily captured by Earth's gravity.

Loading next visibility...
Identifier
42849, 2017-042AA
Orbit
SSO
Country
Flag of TBDTBD
Related business
None
Manufacturer
Unknown
Mission
Non-operational Commercial Meteo Radio Occ.
Bus & Motor
Unknown
Mass
Unknown
Launch date (UTC)
2017-07-14 (8 years ago)
Launch vehicle
SOYUZ-2-1A
Launch site
Tyuratam Missile And Space Complex (TTMTR)
Object type
Unknown
Shape & HBR
Box + 2 Pan, 0.3 m
Radar Cross Section
0.079 m², Medium (>0.1 m² and < 1m²)

Expand to show TLE details & history
Last TLE update: 11 hours ago

TLE from 11 hours ago
0 OBJECT AA
1 42849U 17042AA  25299.47964472  .00006116  00000-0  42982-3 0  9993
2 42849  97.4063 108.9364 0011465 177.4998 182.6289 15.05403953452025
Epoch: 2025-10-26T11:30Z
TLE epoch observation values (Epoch: 2025-10-26T11:30:41.303Z)
Latitude
Longitude
-98.83094°
Altitude
561.273 km
Speed
7.576 km/s
True Right ascension
07h 15m 44s
True Declination
0° 00' 00"
Sunlit
Object was in daylight at epoch
Visualization orbit readout
Latitude
Unknown
Longitude
Unknown
Altitude
Unknown
Speed
Unknown
Apparent Right ascension
Unknown
Apparent Declination
Unknown
Sunlit
N/A
Visualization observer readout
Local Sidereal Time
17:45:01
Azimuth
Unknown
Elevation
Unknown
Doppler factor
Unknown
Orbital elements
Apogee altitude
555.191 km
Perigee altitude
539.311 km
Semi-major axis
6,925.388 km
Eccentricity
0.00115
Inclination
97.4063°
RAAN
108.9364°
Arg. of periapsis
177.4998°
True anomaly
182.62288°
Mean anomaly
182.6289°
Eccentric anomaly
182.62589°
Mean motion
3.76597 °/min
Orbital period
95.59 mins
BSTAR
0.00042982
Loading maneuver chart data...
Computing Atmospheric mass density...

Documentation

Showing up to 5 results
|